Tehachapi, CA

9:25 PM PST on December 09, 2019 (GMT -0800)
Tehachapi Municipal

Weather History for KTSP - October, 2019

Change the Weather History Date:

Friday, October 4, 2019

  Actual Average Record
Temperature  
Mean Temperature 52 °F -  
Max Temperature 62 °F 76 °F 86 °F (2014)
Min Temperature 42 °F 45 °F 28 °F (2017)
Degree Days  
Heating Degree Days 13    
Growing Degree Days 2 (Base 50)    
Moisture  
Dew Point 33 °F    
Average Humidity 48    
Maximum Humidity 71    
Minimum Humidity 32    
Precipitation  
Precipitation 0.00 in - - ()
Sea Level Pressure  
Sea Level Pressure 30.12 in    
Wind  
Wind Speed 12 mph ()    
Max Wind Speed 24 mph    
Max Gust Speed 29 mph    
Visibility 9.4 miles    
Events      
Averages and records for this station are not official NWS values.
T = Trace of Precipitation, MM = Missing Value Source: Averaged Metar Reports

Daily Weather History Graph

Daily Weather History Graph

Search for Another Location

Airport or City:

Astronomy

Oct. 04, 2019 Rise Set
Actual Time 6:50 AM PDT 6:33 PM PDT
Civil Twilight 6:25 AM PDT 6:58 PM PDT
Nautical Twilight 5:56 AM PDT 7:28 PM PDT
Astronomical Twilight 5:26 AM PDT 7:57 PM PDT
Moon 1:15 PM PDT (10/4) 11:19 PM PDT (10/4)
Length of Visible Light 12h 33m
Length of Day
11h 42m
Waxing Crescent, 41% of the Moon is Illuminated
Oct 4
Waxing Crescent
Oct 5
First Quarter
Oct 13
Full
Oct 21
Last Quarter
Oct 27
New

Hourly Weather History & Observations

Time (PDT) Temp. Windchill Dew Point Humidity Pressure Visibility Wind Dir Wind Speed Gust Speed Precip Events Conditions
12:15 AM 48.2 °F - 32.0 °F 54% 30.07 in 10.0 mi West 9.2 mph - N/A   Clear
12:35 AM 50.0 °F - 32.0 °F 50% 30.07 in 10.0 mi West 10.4 mph - N/A   Clear
12:55 AM 50.0 °F - 32.0 °F 50% 30.08 in 10.0 mi West 11.5 mph - N/A   Clear
1:15 AM 50.0 °F - 32.0 °F 50% 30.07 in 10.0 mi West 11.5 mph - N/A   Clear
1:35 AM 50.0 °F - 32.0 °F 50% 30.07 in 10.0 mi West 10.4 mph - N/A   Clear
1:55 AM 50.0 °F - 32.0 °F 50% 30.08 in 10.0 mi West 11.5 mph - N/A   Clear
2:15 AM 50.0 °F - 32.0 °F 50% 30.07 in 10.0 mi West 11.5 mph - N/A   Clear
2:35 AM 48.2 °F - 32.0 °F 54% 30.07 in 10.0 mi West 11.5 mph - N/A   Clear
2:55 AM 50.0 °F - 32.0 °F 50% 30.06 in 10.0 mi West 12.7 mph - N/A   Clear
3:15 AM 50.0 °F - 32.0 °F 50% 30.06 in 10.0 mi West 11.5 mph 19.6 mph N/A   Clear
3:35 AM 50.0 °F - 32.0 °F 50% 30.06 in 10.0 mi West 15.0 mph - N/A   Clear
3:55 AM 50.0 °F - 32.0 °F 50% 30.06 in 10.0 mi West 17.3 mph 20.7 mph N/A   Clear
4:15 AM 50.0 °F - 32.0 °F 50% 30.07 in 10.0 mi West 17.3 mph 23.0 mph N/A   Clear
4:35 AM 48.2 °F - 32.0 °F 54% 30.07 in 10.0 mi WNW 13.8 mph - N/A   Clear
4:55 AM 48.2 °F - 32.0 °F 54% 30.07 in 10.0 mi West 15.0 mph - N/A   Clear
5:15 AM 48.2 °F - 33.8 °F 58% 30.08 in 10.0 mi West 24.2 mph 28.8 mph N/A   Clear
5:35 AM 46.4 °F 39.2 °F 35.6 °F 66% 30.08 in 10.0 mi West 18.4 mph 26.5 mph N/A   Clear
5:55 AM 46.4 °F 39.5 °F 35.6 °F 66% 30.08 in 10.0 mi WNW 17.3 mph 23.0 mph N/A   Clear
6:15 AM 46.4 °F 40.4 °F 35.6 °F 66% 30.09 in 10.0 mi West 13.8 mph 19.6 mph N/A   Clear
6:35 AM 44.6 °F 37.8 °F 35.6 °F 71% 30.09 in 10.0 mi WNW 15.0 mph - N/A   Clear
6:55 AM 44.6 °F 37.8 °F 35.6 °F 71% 30.10 in 9.0 mi WNW 15.0 mph 18.4 mph N/A   Clear
7:15 AM 46.4 °F 40.7 °F 33.8 °F 62% 30.11 in 9.0 mi WNW 12.7 mph - N/A   Clear
7:35 AM 48.2 °F - 33.8 °F 58% 30.11 in 9.0 mi West 18.4 mph 21.9 mph N/A   Clear
8:15 AM 50.0 °F - 32.0 °F 50% 30.11 in 10.0 mi WNW 17.3 mph - N/A   Clear
8:35 AM 53.6 °F - 32.0 °F 44% 30.11 in 10.0 mi WNW 20.7 mph 24.2 mph N/A   Clear
8:55 AM 53.6 °F - 32.0 °F 44% 30.12 in 10.0 mi NW 15.0 mph 24.2 mph N/A   Clear
9:15 AM 55.4 °F - 32.0 °F 41% 30.12 in 9.0 mi NW 15.0 mph 23.0 mph N/A   Clear
9:35 AM 55.4 °F - 32.0 °F 41% 30.13 in 9.0 mi WNW 13.8 mph 20.7 mph N/A   Clear
9:55 AM 55.4 °F - 35.6 °F 47% 30.13 in 9.0 mi WNW 17.3 mph - N/A   Clear
10:15 AM 57.2 °F - 35.6 °F 44% 30.14 in 9.0 mi NW 15.0 mph 20.7 mph N/A   Clear
10:35 AM 57.2 °F - 35.6 °F 44% 30.14 in 10.0 mi WNW 17.3 mph - N/A   Clear
10:55 AM 59.0 °F - 35.6 °F 42% 30.14 in 9.0 mi NW 17.3 mph 24.2 mph N/A   Clear
11:15 AM 59.0 °F - 35.6 °F 42% 30.14 in 9.0 mi NW 17.3 mph 23.0 mph N/A   Clear
11:35 AM 59.0 °F - 35.6 °F 42% 30.14 in 9.0 mi NW 16.1 mph 23.0 mph N/A   Clear
11:55 AM 60.8 °F - 35.6 °F 39% 30.13 in 8.0 mi NW 15.0 mph 21.9 mph N/A   Clear
12:15 PM 60.8 °F - 33.8 °F 36% 30.13 in 8.0 mi NW 16.1 mph 26.5 mph N/A   Clear
12:35 PM 62.6 °F - 35.6 °F 37% 30.14 in 7.0 mi NW 18.4 mph 24.2 mph N/A   Clear
12:55 PM 62.6 °F - 33.8 °F 34% 30.13 in 7.0 mi NW 16.1 mph 21.9 mph N/A   Clear
1:15 PM 62.6 °F - 32.0 °F 32% 30.13 in 6.0 mi NNW 15.0 mph 23.0 mph N/A   Haze
1:35 PM 62.6 °F - 32.0 °F 32% 30.13 in 9.0 mi NW 18.4 mph - N/A   Clear
1:55 PM 62.6 °F - 32.0 °F 32% 30.13 in 9.0 mi NW 17.3 mph 24.2 mph N/A   Clear
2:15 PM 62.6 °F - 32.0 °F 32% 30.12 in 8.0 mi NW 19.6 mph 24.2 mph N/A   Clear
2:35 PM 62.6 °F - 32.0 °F 32% 30.12 in 7.0 mi NW 18.4 mph 24.2 mph N/A   Clear
2:55 PM 62.6 °F - 32.0 °F 32% 30.12 in 6.0 mi NW 18.4 mph 23.0 mph N/A   Haze
3:15 PM 62.6 °F - 32.0 °F 32% 30.13 in 8.0 mi NW 16.1 mph - N/A   Clear
3:35 PM 62.6 °F - 32.0 °F 32% 30.13 in 8.0 mi NW 16.1 mph 23.0 mph N/A   Clear
3:55 PM 62.6 °F - 32.0 °F 32% 30.13 in 9.0 mi NW 18.4 mph 25.3 mph N/A   Clear
4:15 PM 60.8 °F - 32.0 °F 34% 30.13 in 9.0 mi NW 17.3 mph 23.0 mph N/A   Clear
4:35 PM 59.0 °F - 32.0 °F 36% 30.14 in 10.0 mi NW 17.3 mph 23.0 mph N/A   Clear
4:55 PM 59.0 °F - 32.0 °F 36% 30.14 in 10.0 mi WNW 16.1 mph 20.7 mph N/A   Clear
5:15 PM 59.0 °F - 32.0 °F 36% 30.14 in 9.0 mi NW 13.8 mph 18.4 mph N/A   Clear
5:35 PM 57.2 °F - 32.0 °F 38% 30.14 in 9.0 mi WNW 13.8 mph - N/A   Clear
5:55 PM 57.2 °F - 32.0 °F 38% 30.14 in 9.0 mi WNW 13.8 mph - N/A   Clear
6:15 PM 55.4 °F - 32.0 °F 41% 30.14 in 9.0 mi NW 12.7 mph 17.3 mph N/A   Clear
6:35 PM 53.6 °F - 32.0 °F 44% 30.15 in 10.0 mi NW 11.5 mph - N/A   Clear
6:55 PM 51.8 °F - 32.0 °F 47% 30.15 in 10.0 mi WNW 10.4 mph - N/A   Clear
7:15 PM 50.0 °F - 32.0 °F 50% 30.15 in 10.0 mi WNW 8.1 mph - N/A   Clear
7:35 PM 50.0 °F - 32.0 °F 50% 30.16 in 10.0 mi NW 5.8 mph - N/A   Clear
7:55 PM 48.2 °F - 32.0 °F 54% 30.16 in 10.0 mi WNW 6.9 mph - N/A   Clear
8:15 PM 46.4 °F 43.5 °F 32.0 °F 57% 30.17 in 10.0 mi West 5.8 mph - N/A   Clear
8:35 PM 46.4 °F 43.5 °F 32.0 °F 57% 30.17 in 10.0 mi WNW 5.8 mph - N/A   Clear
8:55 PM 46.4 °F 41.9 °F 32.0 °F 57% 30.17 in 10.0 mi WNW 9.2 mph - N/A   Clear
9:15 PM 46.4 °F 44.3 °F 32.0 °F 57% 30.18 in 10.0 mi West 4.6 mph - N/A   Clear
9:35 PM 44.6 °F 41.4 °F 32.0 °F 61% 30.18 in 10.0 mi SW 5.8 mph - N/A   Clear
9:55 PM 46.4 °F 43.5 °F 32.0 °F 57% 30.18 in 10.0 mi WSW 5.8 mph - N/A   Clear
10:15 PM 42.8 °F 39.3 °F 32.0 °F 66% 30.19 in 10.0 mi WSW 5.8 mph - N/A   Clear
10:35 PM 42.8 °F 39.3 °F 32.0 °F 66% 30.19 in 10.0 mi West 5.8 mph - N/A   Clear
10:55 PM 42.8 °F 41.1 °F 32.0 °F 66% 30.19 in 10.0 mi West 3.5 mph - N/A   Clear
11:15 PM 44.6 °F - 32.0 °F 61% 30.20 in 10.0 mi Calm Calm - N/A   Clear
11:35 PM 44.6 °F - 32.0 °F 61% 30.19 in 10.0 mi Calm Calm - N/A   Clear
11:55 PM 42.8 °F - 32.0 °F 66% 30.20 in 10.0 mi Calm Calm - N/A   Clear